Wind_Speed
13 13 13 13 14 15 16 17 19 20 20 20 19 19 20 19 19 18 17 16 14 14 12 11 11 11 12 12 13 14 14 15 15 15 14 12 11 11 10 10 9 9 8 7 7 6 6 5 5 6 6 6 7 7 7 8 8 9 9 9 9 9 9 9 9 8 8 8 8 8 8 8 8 9 9 9 9 9 9 9 9 9 10 11 11
14 13 13 13 13 15 16 17 18 19 19 19 19 19 20 19 19 18 17 15 14 13 12 10 9 10 10 11 12 13 13 14 15 15 13 12 11 10 10 9 9 8 8 7 6 6 5 5 5 5 6 6 6 6 6 7 8 8 8 8 9 8 8 8 8 8 8 8 8 8 9 9 9 9 10 10 10 10 10 10 10 10 10 11 12
14 14 13 13 13 15 15 16 17 19 19 19 19 19 20 19 18 18 17 15 13 12 11 9 8 8 9 10 11 12 13 14 14 15 14 12 11 10 9 9 8 7 7 6 6 5 5 5 5 5 6 6 6 6 6 6 7 7 7 8 8 8 8 8 8 8 8 8 8 8 9 9 9 9 10 10 10 10 10 11 11 11 12 12 13
14 14 14 14 14 14 15 16 17 18 19 18 19 19 19 19 18 17 17 15 13 12 11 8 7 7 8 9 10 11 12 13 14 14 14 12 11 10 9 8 8 7 6 6 5 5 5 5 5 5 5 5 5 6 6 6 6 6 7 7 7 8 8 8 8 8 8 8 9 9 9 9 9 10 10 10 10 10 11 11 12 12 12 13 13
15 14 14 14 14 14 14 16 17 18 18 18 18 19 19 19 18 17 16 16 14 12 11 8 6 6 7 8 9 10 11 12 13 14 13 12 11 10 9 8 7 7 6 6 5 5 5 5 5 5 5 5 5 6 6 6 6 6 6 7 7 7 7 7 7 7 8 8 8 9 9 9 9 10 10 11 11 12 12 12 12 13 13 13 13
15 15 15 14 14 15 15 17 18 18 18 18 18 18 19 19 19 18 17 16 15 12 10 9 6 6 6 7 7 8 10 11 12 13 13 12 11 10 9 8 7 6 6 5 5 5 5 5 5 5 5 5 6 6 6 6 6 6 6 6 6 6 6 6 6 6 7 7 7 8 8 8 9 9 10 11 12 12 12 13 13 13 14 14 14
15 16 16 16 15 15 16 17 18 18 18 19 19 18 18 19 19 18 17 16 15 13 11 9 6 5 5 6 6 7 9 10 11 12 12 12 11 10 9 8 7 6 5 5 5 5 5 5 5 5 5 6 6 6 6 6 5 5 6 6 6 5 5 5 6 6 6 7 7 8 8 9 9 10 10 11 12 13 13 13 13 14 14 14 15
15 16 16 16 15 15 16 17 17 18 19 19 20 19 19 19 19 18 18 17 16 14 11 9 7 5 4 5 6 6 7 9 10 11 12 11 11 10 9 8 7 6 5 5 5 5 5 5 5 5 5 5 6 6 6 6 5 5 5 5 5 5 5 5 5 6 6 7 7 8 9 9 10 10 11 12 13 14 14 15 15 15 15 15 15
15 15 15 15 15 15 15 16 17 18 19 20 21 20 20 19 19 19 18 17 17 15 12 9 7 5 4 4 5 5 6 8 9 10 11 11 11 10 10 8 7 6 5 4 4 5 5 5 5 5 5 5 5 5 5 5 5 5 5 5 5 5 5 5 6 6 6 7 8 8 9 9 9 10 11 12 13 15 16 16 16 16 16 16 16
15 15 14 14 14 14 15 16 17 19 20 21 22 22 21 20 19 19 18 17 17 16 12 9 7 5 4 4 4 5 5 6 8 9 10 11 10 10 10 9 8 7 6 5 4 4 5 5 5 4 4 4 4 4 4 5 5 4 5 5 5 5 6 6 7 7 7 8 8 8 8 9 10 10 11 12 13 14 15 16 16 16 15 16 16
15 15 14 14 14 14 15 16 18 20 22 23 23 23 22 21 19 19 18 17 16 16 12 9 7 6 4 4 4 5 5 5 7 8 9 10 10 10 9 9 9 8 7 6 5 4 4 4 4 4 4 4 4 4 4 4 5 5 5 5 6 6 7 7 7 7 8 8 8 8 8 9 10 11 11 12 13 13 14 15 16 15 15 15 16
16 15 14 14 14 14 15 16 18 21 23 24 24 23 22 21 19 18 18 16 16 16 13 9 7 6 4 4 5 5 4 5 5 7 7 8 9 9 9 9 9 9 8 8 7 6 5 5 5 4 4 5 4 4 4 5 5 6 6 6 6 6 7 7 7 7 7 7 8 8 9 9 10 10 11 12 13 13 14 15 16 16 16 16 17
17 16 14 14 14 15 16 17 19 22 24 24 24 22 21 20 18 18 17 16 16 16 13 9 8 7 5 5 5 5 4 4 4 5 6 7 8 8 8 8 8 9 9 9 8 7 6 6 5 5 5 5 5 5 5 5 6 7 7 7 7 7 7 7 7 7 7 7 8 8 9 9 9 10 11 12 13 14 14 15 16 16 16 17 18
18 16 14 14 15 15 16 18 20 22 23 23 22 20 19 18 17 17 17 16 16 16 13 10 8 8 6 6 6 6 4 4 4 5 6 6 7 8 8 8 8 8 9 9 8 8 7 7 7 6 6 6 5 5 5 5 5 6 6 7 6 6 7 7 7 7 7 7 7 8 8 9 9 9 11 12 13 13 15 15 17 17 18 18 19
19 16 13 13 15 15 17 18 19 21 21 20 20 19 18 17 16 17 17 17 17 16 14 11 9 9 7 7 8 7 6 5 5 5 6 6 7 7 7 8 9 9 9 9 8 8 7 8 8 8 7 6 6 5 5 5 5 5 5 5 6 6 6 7 7 7 7 7 7 7 8 9 8 9 11 11 13 14 15 17 18 19 19 19 20
19 15 13 13 15 16 17 18 19 19 18 18 19 20 19 18 17 17 17 17 17 16 14 12 10 9 9 8 9 8 7 6 5 5 6 6 7 7 7 8 9 9 9 9 9 8 7 7 8 8 8 7 6 6 5 5 5 5 5 4 5 5 5 6 6 6 7 6 7 8 9 10 9 10 11 12 14 15 17 18 19 19 20 20 20
17 14 12 13 15 16 16 17 18 18 16 18 20 21 20 19 19 18 18 17 16 16 14 13 11 10 10 9 9 10 8 7 7 6 6 7 7 8 8 8 8 9 10 10 10 9 8 7 7 8 8 8 7 6 6 5 5 5 5 4 4 4 5 6 6 6 7 7 9 11 11 11 10 11 12 13 15 16 18 19 21 21 21 22 22
16 14 12 13 15 16 16 16 17 17 17 19 21 21 21 20 20 19 19 18 16 15 14 13 12 11 11 11 10 10 10 9 8 8 7 7 7 8 9 9 9 9 10 10 11 11 10 8 7 8 8 8 8 7 7 6 6 6 5 5 5 5 5 6 7 8 9 9 11 13 13 12 12 13 14 15 17 18 19 21 22 24 24 24 24
16 14 13 13 15 16 16 17 18 19 20 21 23 23 23 22 21 21 19 18 16 15 15 14 13 12 12 12 12 11 11 11 10 9 8 8 8 9 9 10 10 10 10 10 11 12 11 10 9 8 8 8 8 8 8 8 7 6 6 6 6 6 7 7 8 9 11 12 13 14 14 14 15 16 16 18 19 20 21 23 24 25 26 26 25
17 15 14 14 16 17 18 19 20 21 22 23 24 23 24 24 22 21 20 18 16 15 15 15 14 14 13 13 13 13 13 12 11 10 10 9 9 9 10 11 11 11 11 11 11 12 12 11 10 10 9 9 9 9 9 8 8 8 7 7 7 8 9 10 11 12 13 15 16 16 16 17 18 19 19 21 22 23 24 24 25 26 26 26 26
19 16 15 15 17 19 20 21 21 22 23 23 24 23 23 24 22 21 19 17 15 14 14 15 15 15 15 15 14 14 14 13 13 12 11 11 11 11 11 11 11 12 12 12 12 12 12 12 11 11 10 10 10 10 10 9 9 9 9 9 9 11 11 12 13 15 16 17 18 17 17 19 20 21 22 23 24 25 25 25 26 26 27 27 26
20 18 16 16 18 21 23 23 22 22 23 23 23 22 21 22 21 20 18 16 14 13 14 15 16 16 16 16 15 15 15 15 14 14 13 12 12 12 12 11 12 12 12 13 13 13 13 13 12 12 11 11 11 11 11 10 10 10 10 11 11 12 13 14 16 18 18 18 19 18 19 20 21 23 24 24 25 25 25 26 26 26 27 27 27
21 19 17 17 19 23 25 24 23 22 22 22 22 21 20 20 20 18 16 14 13 12 13 15 16 16 17 17 17 17 17 16 16 15 14 14 14 14 14 13 13 13 13 13 13 13 13 13 13 13 12 12 11 11 11 11 10 10 11 12 12 13 15 17 18 19 20 21 20 20 20 21 22 23 24 24 25 26 26 26 26 26 27 27 28
23 20 17 18 20 24 26 24 22 22 22 21 21 20 19 19 18 17 15 14 13 12 13 15 16 17 18 18 18 18 18 18 18 16 15 15 15 16 16 15 15 14 14 14 14 14 14 14 13 13 13 13 12 12 12 11 11 11 12 13 13 14 15 18 20 20 21 22 21 21 22 22 23 23 24 24 25 25 26 26 27 27 27 27 28
24 20 18 19 22 26 26 24 22 22 21 20 20 20 19 18 17 17 15 14 14 14 14 15 17 18 19 19 19 20 20 19 19 18 16 16 16 16 17 16 16 15 15 15 15 14 14 14 13 13 14 14 13 12 12 12 12 13 13 14 15 16 17 18 20 21 21 22 22 22 22 22 23 24 24 25 25 26 26 27 27 28 28 29 29
25 21 19 20 23 26 25 24 23 22 21 20 20 20 19 17 17 17 16 16 16 15 16 17 18 19 19 20 20 20 21 20 20 19 18 17 16 16 16 16 16 16 16 15 15 14 15 15 13 13 14 13 13 13 13 13 13 14 15 15 16 17 18 18 20 21 21 21 22 21 22 23 24 24 25 26 26 27 27 27 28 29 29 30 31
26 23 19 21 25 26 24 23 23 22 21 20 20 20 20 19 18 18 18 18 18 17 17 18 19 19 20 20 20 20 21 21 20 20 19 19 18 18 18 18 19 19 17 16 17 16 16 16 14 13 14 14 14 13 13 14 14 15 15 16 17 18 18 18 19 20 20 20 21 22 23 24 25 25 26 27 28 28 28 29 29 30 30 31 32
27 24 21 22 26 25 23 23 23 23 22 21 21 22 22 21 20 20 20 20 20 19 19 20 20 20 20 20 20 20 21 22 22 22 21 21 21 21 21 21 21 20 18 18 19 18 16 16 15 14 14 14 14 14 14 15 15 16 17 17 18 18 18 18 18 20 20 21 21 22 23 24 25 26 27 28 29 30 30 31 31 31 32 32 33
28 25 22 23 26 25 22 23 24 23 23 23 22 23 24 23 23 22 21 21 21 21 21 21 21 22 21 21 21 21 22 23 23 22 22 22 22 22 22 21 21 21 19 18 19 19 18 17 16 15 14 15 15 15 15 16 16 17 17 18 18 18 18 18 19 20 20 21 23 23 24 25 26 27 28 30 30 31 31 32 32 32 33 33 34
30 27 24 25 26 24 23 24 24 24 24 24 24 25 25 25 24 23 22 22 23 22 23 23 23 22 21 21 21 22 23 23 23 22 22 22 23 23 22 22 22 21 20 19 19 20 20 19 17 16 16 15 16 16 16 17 17 18 18 18 18 18 18 19 20 21 21 21 23 25 25 26 27 29 30 31 31 32 32 33 33 34 35 35 35
30 28 26 26 25 24 23 25 25 25 25 24 25 26 27 26 25 23 22 23 23 23 24 24 24 22 22 21 21 22 23 23 22 22 24 24 24 24 23 23 23 22 21 21 20 20 20 20 19 18 17 16 17 17 17 17 18 18 18 17 18 18 19 20 21 23 24 23 23 25 27 28 28 29 30 31 32 33 34 34 35 36 37 37 38
31 29 27 26 25 25 25 26 26 26 26 25 26 27 27 27 26 24 23 23 24 25 24 24 24 22 21 21 21 22 23 23 22 23 25 25 24 24 24 24 24 22 21 22 21 21 21 21 20 19 18 17 17 17 17 17 17 17 17 17 18 18 20 21 23 24 25 25 24 24 26 28 29 30 31 32 33 35 36 36 37 38 39 39 39
32 29 27 26 25 26 26 26 26 26 27 27 27 27 27 27 26 25 25 25 26 26 26 25 24 22 21 21 22 22 23 22 22 23 24 23 24 24 24 24 23 23 22 22 22 22 22 22 21 20 19 18 17 16 16 16 16 16 16 17 18 19 21 22 23 24 25 26 26 26 25 26 28 30 32 33 35 36 37 38 39 40 40 40 40
32 29 28 27 26 26 27 27 27 27 28 28 28 28 29 28 27 27 26 27 28 28 27 26 24 23 22 22 22 22 23 23 23 23 20 21 23 22 22 22 22 23 23 23 23 23 23 23 23 21 19 17 15 15 14 14 15 17 17 18 19 20 22 22 23 24 25 26 27 27 28 28 29 30 32 34 36 37 38 39 39 40 40 39 39
32 29 28 28 27 27 28 28 28 28 28 29 30 30 30 29 28 28 28 28 29 30 29 26 24 24 23 22 23 23 24 23 23 23 21 23 24 20 20 21 22 23 23 23 23 24 24 24 23 20 17 15 14 14 14 15 16 17 18 19 20 21 22 23 24 25 25 26 27 28 30 31 32 33 34 35 37 38 38 39 39 40 40 39 39
32 29 29 29 28 27 28 29 29 29 29 30 31 31 31 30 31 30 30 30 30 31 30 27 25 25 23 23 24 24 25 24 22 24 25 25 22 20 21 23 22 22 22 23 23 23 25 26 23 19 17 15 14 14 15 16 16 17 19 20 21 21 22 23 24 25 25 26 27 29 30 32 33 35 36 37 38 39 39 39 39 39 38 38 38
31 28 30 29 28 27 29 30 31 30 30 31 32 32 32 32 33 32 32 32 31 31 30 28 26 25 24 25 26 25 25 25 24 25 26 24 22 22 24 24 23 22 22 22 22 23 25 25 23 20 18 16 15 14 14 15 16 18 19 20 20 21 22 24 24 25 25 27 28 30 31 33 34 36 37 39 39 40 40 39 39 38 38 37 37
29 28 30 29 28 28 29 31 32 31 31 33 33 32 32 33 34 34 33 33 33 31 30 29 27 25 25 26 26 26 25 25 24 25 25 25 25 25 24 24 23 22 22 23 23 23 24 23 20 18 16 15 14 13 14 16 17 18 19 19 21 22 23 23 24 25 26 28 30 31 32 34 35 37 38 40 40 40 40 39 38 37 37 37 37
29 29 31 29 28 29 31 32 32 32 32 33 34 33 34 35 35 35 34 34 33 31 29 29 27 26 27 27 26 26 25 25 25 24 24 25 24 23 23 23 23 23 23 23 22 23 24 20 14 13 12 12 13 13 14 15 16 17 19 20 21 22 23 23 25 26 28 30 31 32 34 35 37 38 39 40 40 40 40 39 38 37 37 37 37
29 30 31 29 29 29 31 33 33 32 33 33 34 34 35 36 35 34 33 32 31 29 28 28 27 27 27 27 26 25 25 26 25 25 24 23 23 22 22 23 23 23 22 22 23 23 20 14 8 8 9 10 12 13 14 16 17 18 20 21 22 23 24 25 26 28 30 31 33 34 35 36 37 38 39 40 40 40 40 39 39 38 37 37 37
29 30 31 30 30 30 30 32 33 32 32 33 34 35 36 35 33 31 30 29 29 27 26 27 27 27 27 26 25 25 26 27 25 23 22 22 21 20 21 22 22 22 22 22 21 17 11 8 7 8 10 12 13 14 15 17 18 19 21 22 23 24 25 27 28 30 31 32 33 34 34 36 37 38 39 39 39 39 39 39 39 38 38 37 37
29 29 31 31 30 29 29 31 32 31 31 31 33 34 34 31 29 29 28 28 27 26 25 26 27 27 26 25 25 26 26 26 23 21 21 21 20 21 21 21 21 21 21 18 13 9 7 7 8 10 11 13 14 15 16 18 19 21 22 23 25 26 27 28 30 31 32 33 33 34 35 36 37 38 39 38 38 38 38 38 38 38 38 38 37
29 30 31 31 28 28 29 30 31 31 30 30 31 32 31 29 28 27 26 26 26 25 25 26 26 26 25 25 25 25 26 25 23 22 21 20 20 21 20 19 20 20 16 10 8 8 8 8 9 11 13 14 15 17 18 20 21 22 24 25 26 27 28 30 32 32 33 33 33 34 36 37 38 38 38 38 38 37 37 37 37 37 37 38 38
29 30 32 31 28 29 31 31 31 31 30 29 30 30 29 28 27 26 25 25 25 25 25 25 25 25 25 25 25 25 25 24 23 22 20 19 20 18 17 17 18 15 11 8 9 9 8 9 11 12 13 15 17 18 20 22 23 24 25 26 28 29 29 30 32 32 33 33 34 35 36 37 38 39 39 39 38 38 37 37 37 37 37 38 38
29 30 32 33 29 29 31 31 30 30 28 28 28 29 29 28 27 26 25 25 26 26 26 26 26 25 26 26 25 24 24 23 22 21 19 18 17 14 14 17 16 13 11 10 10 9 9 11 12 13 15 16 18 20 22 24 25 26 27 28 30 31 31 32 32 32 33 33 35 36 37 39 39 40 40 40 40 39 39 38 38 38 38 38 39
30 31 32 32 28 28 31 31 30 28 27 27 28 27 27 26 26 26 26 26 27 28 27 27 26 26 27 26 24 23 22 21 20 19 17 15 13 12 14 17 16 14 13 11 11 10 11 12 13 15 16 18 19 21 23 24 25 26 28 30 32 34 34 34 34 33 34 35 36 37 38 40 41 41 42 42 42 41 41 40 39 39 39 39 39
31 31 30 31 30 29 30 31 29 27 26 27 26 25 25 25 26 26 26 26 27 27 27 27 27 27 26 24 23 22 20 19 18 17 15 13 13 13 15 16 15 14 13 12 12 12 13 14 15 17 18 19 21 22 23 24 26 27 29 31 33 34 35 35 35 35 35 35 37 39 41 42 42 43 43 43 43 42 42 41 41 40 40 40 40
32 30 29 32 31 29 29 30 28 26 25 26 25 25 26 26 28 28 27 27 27 27 27 26 26 25 24 23 22 20 18 17 17 16 14 13 13 14 14 15 15 14 14 13 14 14 15 16 17 18 19 21 22 23 24 25 26 28 30 32 33 34 34 35 36 36 37 37 38 39 41 43 44 44 45 44 43 43 42 42 41 40 40 40 41
32 29 31 32 30 27 27 27 27 26 26 26 25 26 26 26 28 29 28 28 27 27 27 25 25 24 23 22 21 19 17 16 15 14 13 13 13 13 14 14 15 15 15 15 15 15 16 17 18 19 21 22 23 24 24 26 27 29 31 32 33 33 34 35 36 36 38 39 40 41 42 43 43 44 45 44 43 43 42 42 41 41 41 41 42
31 30 32 31 27 25 25 25 25 26 26 25 25 26 26 27 28 29 29 28 27 27 26 25 24 23 22 21 19 18 16 14 14 14 13 13 13 13 13 14 15 16 17 16 16 16 17 18 19 20 22 23 24 24 25 27 29 30 32 33 33 34 34 35 35 36 37 39 41 43 44 44 44 44 44 44 43 43 42 42 42 42 42 43 44
31 31 31 28 25 24 24 24 25 25 25 25 26 27 27 27 28 28 27 27 26 26 26 26 25 23 22 21 18 16 14 13 14 15 15 15 14 14 14 15 16 17 17 17 17 18 19 19 21 22 23 23 24 25 26 28 30 31 32 33 33 34 35 35 36 36 37 39 41 43 44 45 46 45 44 44 43 43 43 43 43 43 44 45 45
Wind_Direction
350 347 348 349 350 352 353 355 356 358 1 6 8 6 4 2 2 8 17 21 20 15 18 26 26 21 20 23 22 20 21 21 18 17 17 17 22 25 25 27 28 28 30 33 32 31 29 26 24 20 18 15 15 16 17 20 21 22 20 18 16 12 9 5 2 358 355 352 350 348 347 346 345 343 339 335 332 328 325 324 324 324 322 319 316
351 348 347 347 348 349 351 352 351 353 355 1 4 4 2 0 359 2 10 17 18 14 16 23 26 20 18 21 21 19 18 20 18 15 15 16 20 24 22 24 26 27 28 30 33 29 27 24 23 20 15 14 13 12 12 18 20 21 18 16 14 9 5 1 359 356 354 351 351 351 350 350 348 346 344 339 335 331 329 328 329 330 330 327 323
352 347 348 347 347 348 349 350 348 348 349 354 358 1 0 358 358 358 3 10 14 12 13 19 24 20 17 19 20 17 16 18 17 14 13 13 16 22 20 22 23 23 26 27 32 27 25 23 20 18 13 12 8 8 8 14 17 18 17 14 11 5 1 359 357 356 354 353 354 355 355 355 353 351 348 345 342 340 338 337 337 337 337 335 332
350 344 346 345 347 348 346 347 345 343 343 348 353 356 357 356 354 355 358 1 7 7 7 13 20 19 16 16 20 17 14 15 16 14 12 11 12 17 17 19 21 20 25 24 27 26 23 21 18 14 10 8 4 7 8 11 14 14 15 11 7 2 360 358 357 355 354 355 356 358 0 359 356 354 351 349 347 345 344 342 341 340 340 338 335
348 342 341 342 344 344 342 341 340 337 337 342 347 351 353 352 350 352 353 354 358 1 1 5 14 16 15 13 17 17 14 13 14 14 11 11 8 11 14 14 19 19 21 21 24 24 23 21 17 13 7 7 4 8 9 10 11 12 12 10 7 2 360 357 356 355 354 356 358 1 3 1 358 355 351 348 347 345 344 342 342 341 340 338 336
344 341 339 339 339 338 336 335 334 332 332 337 341 346 348 347 345 347 349 348 349 353 356 356 4 9 11 10 12 17 15 13 12 13 10 9 6 5 8 9 15 18 18 18 20 20 19 20 17 14 8 8 8 10 11 10 10 11 11 10 8 4 0 357 356 355 356 359 1 3 3 2 359 355 350 347 344 343 341 341 342 342 341 341 339
340 338 339 338 337 334 331 329 330 329 329 332 335 339 341 341 339 340 343 342 342 344 349 349 352 358 5 3 5 13 15 14 10 12 9 7 4 1 2 3 8 11 15 15 14 14 12 15 17 15 11 11 12 12 11 9 8 9 12 13 11 6 3 360 359 360 2 4 3 4 4 3 359 354 348 344 342 340 340 341 343 344 344 343 340
338 335 336 336 335 332 329 328 328 327 327 328 329 332 333 334 332 333 337 337 335 337 343 344 340 344 354 355 355 6 13 13 10 10 9 5 2 359 357 356 359 1 7 12 10 8 6 9 14 15 13 13 14 13 10 5 4 6 12 14 11 9 7 4 5 5 6 7 5 5 3 1 357 351 345 341 340 339 339 341 342 342 342 341 339
334 332 333 333 333 331 330 330 330 328 325 325 325 326 327 327 326 326 329 331 330 331 337 337 329 332 339 342 344 354 7 11 8 8 7 5 1 358 354 349 347 349 355 2 6 5 3 3 7 10 9 11 15 12 6 2 360 2 7 9 9 8 8 8 9 8 9 9 7 5 3 358 353 346 341 339 339 339 339 338 338 338 339 337 336
328 329 329 330 330 331 331 333 332 328 324 323 322 321 321 320 319 319 322 325 325 325 330 331 321 320 324 324 330 339 357 6 7 6 6 4 0 356 351 345 340 340 343 346 354 358 358 357 356 358 359 1 8 7 0 355 353 355 359 2 2 6 7 8 9 7 7 8 5 2 360 354 347 341 339 339 339 339 337 334 334 335 334 333 332
322 324 324 326 326 326 329 331 328 325 323 321 320 318 315 313 313 314 316 319 320 320 322 323 312 308 309 306 314 324 342 358 3 2 3 3 359 355 349 342 336 333 333 333 338 345 349 347 344 342 342 346 353 355 349 345 345 349 353 357 359 2 5 5 5 3 1 1 359 355 354 349 343 340 339 339 339 339 336 332 330 330 329 329 329
312 317 319 320 319 319 321 323 320 319 320 319 317 314 310 309 309 308 311 315 316 315 315 313 303 296 291 287 294 307 327 343 354 356 357 1 357 352 346 339 333 329 327 326 327 331 335 334 331 330 330 331 337 339 338 337 339 346 349 352 354 356 1 360 357 356 354 353 353 351 351 346 340 339 340 342 342 341 338 333 328 327 328 329 329
303 310 313 317 314 313 314 313 313 315 318 317 315 314 311 309 306 303 307 313 312 309 307 304 295 285 279 276 279 290 308 324 335 345 348 354 356 350 343 335 329 325 321 320 320 322 324 324 322 320 321 321 325 329 331 335 337 342 344 344 346 349 351 349 347 347 347 348 348 349 346 339 339 340 342 345 344 341 338 331 328 328 331 332 331
298 305 308 314 313 310 311 310 313 317 318 316 317 318 317 313 305 303 308 311 308 304 301 297 287 278 272 270 272 278 287 303 314 325 335 343 349 348 340 331 323 318 315 314 313 315 317 318 316 313 313 313 314 319 325 331 334 334 334 333 335 340 340 337 339 342 343 343 344 344 334 329 336 339 341 345 341 337 334 329 328 330 332 333 333
295 301 305 310 310 310 310 312 318 320 319 319 323 325 323 317 308 307 310 309 306 302 299 295 283 275 270 267 269 271 277 287 296 305 318 329 337 343 339 329 319 312 307 306 306 306 309 311 311 308 306 306 305 309 315 318 320 321 322 322 324 328 328 328 331 334 335 334 334 325 318 326 333 334 339 340 334 332 329 327 327 328 329 330 332
292 297 301 307 307 309 309 314 323 323 322 325 328 327 326 320 313 313 314 310 306 301 299 294 283 275 269 266 268 268 272 275 282 291 302 315 325 333 335 327 317 310 303 299 298 297 298 301 304 303 301 300 300 302 302 302 302 303 305 307 310 316 317 319 322 323 322 322 320 309 313 329 330 325 332 330 326 326 325 323 323 324 326 328 329
289 292 298 303 304 305 307 316 323 321 319 327 331 329 327 322 318 318 316 311 304 299 299 295 285 277 271 268 268 269 270 270 274 279 287 300 311 321 325 323 316 308 303 297 295 292 289 291 294 296 296 296 295 294 290 286 287 287 293 297 302 309 310 311 311 308 308 308 307 308 320 329 322 318 323 322 320 320 320 318 319 321 323 325 327
285 287 296 299 300 302 306 315 319 316 311 318 327 328 327 322 320 320 316 310 303 298 298 296 288 280 275 271 271 271 271 270 271 273 278 287 297 309 315 317 315 308 302 296 293 291 289 288 289 289 288 288 288 285 281 279 278 281 286 295 299 300 300 303 303 303 303 299 300 311 323 323 315 314 316 316 314 314 315 314 315 317 318 321 323
283 284 292 295 296 300 306 312 312 310 307 308 314 321 324 321 321 319 316 312 303 297 295 294 290 283 279 276 275 273 272 271 270 272 273 279 287 297 305 310 311 308 303 297 292 290 289 289 290 290 286 284 282 278 276 276 277 279 283 290 293 292 294 298 299 298 298 297 301 312 319 318 314 312 312 312 311 312 312 311 312 313 315 317 320
282 283 289 293 296 302 308 310 305 304 305 304 305 312 317 318 319 318 316 314 305 297 293 291 288 285 282 278 278 275 272 271 270 270 270 273 278 285 295 302 307 309 306 301 295 290 288 287 287 287 286 282 278 276 273 273 276 279 282 287 289 290 291 296 297 294 296 300 306 315 318 316 314 312 312 311 311 311 311 311 311 312 313 316 317
281 284 288 293 298 305 310 308 301 299 302 302 304 307 310 311 314 316 316 314 307 298 292 290 287 285 283 281 279 276 273 271 269 268 268 268 270 274 282 291 299 305 307 304 299 293 288 283 281 280 279 277 276 275 273 271 276 281 285 287 288 292 296 300 299 296 298 301 306 316 318 315 313 312 312 312 311 311 311 311 311 312 313 315 316
279 283 287 292 300 305 308 307 300 296 299 302 304 305 305 306 308 312 314 313 308 298 292 289 289 289 288 286 282 278 274 271 269 268 269 269 268 269 272 279 287 295 302 304 301 296 290 283 279 276 274 273 273 275 274 273 275 280 284 284 288 295 302 304 301 300 304 307 311 318 318 314 312 311 312 311 311 310 311 311 311 312 312 314 315
277 281 286 293 299 304 307 306 300 297 298 301 304 304 302 302 304 306 308 310 307 299 294 293 295 295 292 289 286 281 277 274 272 272 273 273 273 273 272 274 277 285 291 297 299 298 294 287 280 276 274 270 269 273 275 275 275 278 281 284 290 298 303 304 303 305 309 312 316 318 316 314 312 311 311 311 311 311 311 311 311 311 311 312 314
274 280 287 293 298 302 306 304 300 298 299 301 303 302 299 298 300 301 301 304 305 300 298 298 298 297 293 291 287 284 281 279 279 278 278 278 278 275 275 275 275 278 282 287 292 294 293 288 282 277 272 269 267 270 272 275 278 280 284 290 295 298 299 302 305 307 309 311 315 316 314 313 312 312 312 311 311 311 311 310 310 310 310 311 313
275 281 286 290 297 300 304 303 300 299 298 300 301 298 296 296 297 296 296 299 302 301 302 300 298 295 292 289 286 285 285 284 284 284 283 283 280 277 277 276 275 275 276 282 284 287 290 286 282 276 271 268 266 267 269 273 278 283 288 293 296 297 297 299 302 305 307 311 314 314 314 313 313 313 311 311 311 310 310 310 309 310 310 311 312
275 279 284 288 294 298 301 301 299 298 296 295 295 293 291 293 294 295 294 295 298 302 303 300 297 293 289 286 286 287 288 287 286 287 286 286 287 288 285 281 280 279 278 282 283 287 290 288 285 279 274 271 267 267 269 272 276 283 288 292 293 294 295 296 300 305 307 310 312 313 313 312 312 312 311 310 310 310 309 308 308 309 310 311 311
275 278 282 287 292 296 297 297 297 297 293 289 288 287 287 289 292 294 292 292 296 300 301 298 295 291 288 286 286 288 289 289 288 289 288 287 288 288 285 284 285 282 278 278 280 283 284 284 284 279 276 273 271 270 270 274 279 284 288 290 292 292 293 294 298 303 306 308 311 311 311 311 311 310 310 310 309 309 308 308 308 309 310 311 311
274 278 282 286 291 294 293 293 294 294 289 284 283 281 282 286 291 292 290 291 294 297 297 296 294 290 288 287 288 289 290 289 288 287 287 286 285 282 280 279 279 277 274 271 275 280 280 281 281 276 273 270 271 273 275 279 283 287 289 290 292 292 294 296 298 302 307 309 308 309 310 310 310 310 310 310 309 309 309 309 309 310 310 310 311
273 278 282 286 291 293 290 289 290 291 286 280 279 278 280 285 290 290 289 290 292 294 295 295 293 289 287 286 289 292 292 292 290 289 289 289 287 284 282 280 277 276 274 270 271 276 278 279 279 276 272 269 271 276 280 284 288 290 291 292 293 294 297 301 302 303 307 308 308 309 309 310 310 310 311 310 310 309 310 310 310 310 310 310 311
274 278 282 287 291 292 287 286 287 287 284 278 275 276 279 284 288 289 290 290 291 292 293 294 292 287 286 286 290 294 294 292 292 293 294 291 289 287 285 283 279 278 277 276 274 274 275 276 277 276 271 270 274 278 283 286 289 291 291 293 295 298 301 304 303 303 304 306 308 308 308 310 311 311 310 310 310 310 310 311 310 310 310 310 311
273 278 282 288 291 290 284 283 284 284 282 277 273 274 277 281 284 286 288 288 289 290 291 292 289 286 285 287 293 295 294 293 294 297 295 290 289 288 286 283 281 279 278 278 276 274 274 273 274 274 271 270 274 280 284 287 288 290 293 295 297 300 303 303 303 302 302 303 306 308 309 310 310 310 310 310 311 311 311 311 311 310 310 310 310
272 277 283 288 289 286 281 281 282 281 280 276 273 274 276 279 281 283 285 286 287 288 288 289 288 285 284 289 294 294 294 294 296 298 293 288 289 289 284 282 283 281 278 277 276 275 274 273 273 273 271 270 275 280 284 287 289 292 295 298 300 301 302 302 302 303 303 303 305 308 310 311 310 311 311 311 311 311 312 311 310 310 309 309 308
272 278 284 286 285 282 279 279 278 277 277 276 274 274 275 278 280 283 285 285 286 286 286 287 287 285 285 290 293 293 293 293 297 298 290 287 292 291 283 280 281 281 280 278 277 276 274 274 273 271 269 269 273 279 283 288 292 294 296 298 299 300 301 302 303 304 305 306 307 308 308 309 309 311 311 312 312 311 311 310 310 309 309 309 309
274 280 284 283 280 279 278 276 274 273 273 274 274 275 276 277 280 283 284 285 286 285 285 286 286 284 285 290 291 290 290 291 296 295 285 286 296 294 284 279 280 281 280 278 278 276 274 273 272 269 266 266 270 276 282 287 289 292 294 296 298 300 301 302 303 304 305 307 308 310 310 310 311 312 312 313 313 312 312 311 311 310 310 310 310
275 280 281 279 276 276 275 273 270 269 270 271 273 273 274 276 279 280 282 284 284 283 283 285 284 283 285 288 288 287 287 290 292 288 282 285 291 287 279 281 283 281 280 279 279 277 275 272 268 263 258 260 266 272 277 282 286 291 294 297 299 300 301 302 303 304 305 307 309 311 312 314 314 315 315 315 315 315 314 313 312 311 310 310 310
274 277 277 276 274 273 272 270 268 266 266 268 270 271 273 275 277 278 280 281 282 281 282 283 283 283 284 285 284 284 285 289 290 287 287 288 286 278 275 283 285 282 281 280 279 279 276 269 261 254 252 254 263 269 274 280 285 291 294 297 298 299 301 303 303 304 306 309 310 312 313 315 315 316 317 317 318 317 317 315 313 311 309 309 308
273 274 273 273 272 271 269 267 266 264 264 265 267 269 272 274 275 278 280 281 281 281 281 283 282 281 282 282 282 282 282 285 286 285 287 287 283 279 280 286 285 282 281 279 278 279 278 272 260 251 249 252 260 267 274 281 286 290 293 295 297 300 301 301 302 305 307 309 311 312 313 314 315 316 318 319 319 318 317 315 313 311 309 307 306
271 270 269 271 269 267 266 264 264 264 264 265 266 269 271 272 275 278 279 280 280 279 282 283 281 278 279 280 281 282 282 283 285 284 284 283 281 280 282 284 283 281 280 279 278 279 281 281 266 251 248 252 260 267 275 282 286 289 292 294 297 297 297 298 301 305 307 309 310 310 312 314 315 317 318 318 318 317 316 314 312 310 308 306 305
267 267 267 267 266 264 262 262 262 263 263 264 267 269 271 273 275 278 278 278 277 279 283 283 278 275 275 278 281 283 285 285 286 285 283 281 279 278 279 280 281 281 280 280 280 278 279 279 268 255 255 260 267 271 276 281 283 287 290 292 292 293 295 300 303 305 307 308 309 310 312 314 315 316 317 317 316 315 314 313 311 309 306 305 303
263 263 264 264 262 260 260 261 261 262 263 265 268 270 272 274 276 276 276 275 276 279 283 281 275 272 275 278 279 282 285 285 286 286 284 282 279 279 280 280 280 280 281 280 277 275 274 271 262 262 266 269 272 275 279 281 284 287 289 291 292 296 300 303 304 306 307 308 309 310 311 313 314 315 316 315 315 314 313 312 310 308 306 304 303
260 260 262 261 258 256 256 259 261 263 267 270 271 272 273 274 274 273 273 274 276 279 279 277 274 274 276 277 278 281 283 284 286 287 285 283 282 281 280 281 281 280 278 275 272 271 268 262 261 267 270 274 278 282 285 287 289 292 294 296 299 301 303 304 305 307 307 308 308 309 311 313 315 315 315 315 314 313 312 310 309 307 306 304 303
258 258 258 257 255 256 257 260 264 267 272 274 273 273 272 272 272 271 273 276 276 277 277 275 274 274 273 274 278 281 282 282 283 287 289 286 283 281 280 281 278 274 272 271 269 264 259 261 269 275 279 283 287 290 292 293 295 298 300 303 304 304 306 307 307 307 307 308 310 312 314 316 316 316 316 315 315 313 311 309 308 307 306 305 304
254 255 255 256 257 260 261 264 268 271 273 273 271 269 269 269 270 270 272 274 275 277 276 273 271 270 269 273 278 280 283 284 283 288 291 287 283 282 281 278 272 268 268 270 267 262 265 272 278 282 286 290 294 296 298 299 301 303 304 305 306 307 309 309 308 309 309 311 313 315 316 317 317 318 317 317 316 314 312 311 310 308 307 306 305
250 253 255 255 255 258 261 263 268 271 272 271 270 268 267 268 268 269 270 272 273 274 272 268 266 266 267 272 277 279 283 284 283 287 288 283 281 281 278 274 271 271 271 269 267 268 274 280 283 287 291 294 297 299 301 301 303 305 305 305 305 307 308 308 309 310 311 313 315 316 318 319 319 319 319 318 317 317 316 315 313 312 311 309 308
246 249 253 255 257 260 263 265 267 269 270 268 267 268 269 268 268 268 269 271 271 270 269 266 264 265 268 272 275 276 280 281 280 280 280 278 278 276 272 270 272 275 274 268 268 272 277 282 286 289 292 296 298 299 300 302 304 305 307 308 308 308 309 310 311 312 313 314 316 318 320 320 321 321 321 320 320 319 319 317 316 314 313 311 310
246 246 250 256 262 265 266 267 265 265 265 264 265 268 267 266 266 267 267 268 269 269 268 266 264 266 269 272 274 276 279 279 275 273 272 271 271 267 264 266 269 272 269 266 267 273 279 284 288 290 294 297 297 299 300 302 304 307 309 310 310 311 311 312 313 314 315 316 318 320 322 322 323 323 323 323 323 322 320 319 317 315 314 312 310
248 248 250 256 261 262 264 264 262 261 261 261 263 264 263 263 265 266 265 266 268 269 267 265 266 268 271 272 274 276 277 275 270 267 264 264 266 264 261 264 267 266 264 264 269 275 281 286 290 292 295 296 296 298 301 303 306 309 310 310 310 311 312 313 313 313 314 318 320 322 323 324 325 325 326 325 323 322 320 318 316 315 313 312 311
247 250 252 256 258 260 261 259 257 259 261 260 259 259 261 264 264 264 266 268 269 268 266 266 269 270 271 272 274 274 271 268 265 260 257 261 265 264 261 263 264 262 263 268 273 279 284 288 290 292 293 294 296 298 302 305 307 308 309 309 310 311 312 313 313 313 315 318 322 324 325 326 326 327 326 325 322 320 319 317 315 314 313 313 312
246 250 252 256 259 260 258 255 253 257 260 258 257 259 261 262 262 264 268 271 269 266 265 268 270 270 270 271 271 268 263 264 263 256 256 262 264 262 261 262 263 264 268 274 278 282 285 287 289 291 293 294 296 299 302 305 306 307 308 309 310 312 313 313 314 317 319 321 323 325 326 327 327 327 326 323 321 319 318 317 315 314 313 313 312
244 247 251 255 258 255 252 252 254 257 258 257 258 259 260 261 262 265 269 270 267 265 266 268 268 268 268 267 265 262 260 263 260 257 263 267 264 262 262 264 266 269 274 278 281 283 284 286 289 291 292 294 297 299 302 303 305 307 309 310 311 312 313 314 317 320 322 324 325 326 326 326 326 326 324 322 319 318 317 316 315 314 313 312 311
242 246 250 253 253 249 245 249 255 257 257 257 258 259 260 262 265 267 269 267 265 265 266 265 265 265 264 263 262 260 259 260 259 262 269 268 264 264 264 267 270 274 278 279 281 282 284 286 288 290 292 294 296 298 300 303 305 308 310 311 311 311 313 316 320 322 324 325 326 327 327 326 325 324 323 320 318 317 316 315 314 313 312 311 310
Height
5894 5894 5894 5893 5892 5892 5891 5890 5889 5888 5887 5886 5885 5884 5883 5881 5879 5878 5877 5876 5875 5874 5874 5873 5873 5872 5871 5870 5869 5868 5867 5866 5865 5864 5863 5862 5861 5860 5859 5859 5858 5857 5857 5856 5856 5856 5855 5855 5854 5854 5854 5853 5853 5853 5852 5851 5851 5850 5850 5850 5849 5849 5849 5849 5848 5848 5848 5848 5847 5847 5847 5847 5846 5846 5846 5845 5844 5844 5843 5843 5842 5842 5841 5841 5841
5895 5894 5893 5893 5892 5891 5891 5890 5889 5888 5887 5886 5885 5884 5883 5881 5879 5878 5877 5876 5875 5874 5874 5873 5873 5873 5872 5870 5869 5868 5867 5866 5866 5865 5864 5862 5861 5860 5860 5859 5858 5858 5857 5857 5856 5856 5855 5855 5854 5854 5854 5853 5853 5853 5852 5851 5851 5851 5850 5850 5850 5849 5849 5849 5849 5848 5848 5848 5847 5847 5847 5847 5846 5846 5845 5845 5844 5843 5843 5842 5841 5841 5840 5840 5840
5894 5894 5893 5892 5892 5891 5890 5890 5889 5888 5887 5886 5886 5885 5883 5881 5879 5878 5877 5876 5875 5874 5874 5873 5873 5873 5872 5871 5869 5868 5867 5867 5866 5865 5864 5863 5862 5861 5860 5859 5858 5858 5857 5857 5856 5856 5855 5855 5854 5854 5854 5853 5853 5853 5852 5852 5851 5851 5850 5850 5850 5850 5849 5849 5849 5849 5848 5848 5847 5847 5847 5846 5846 5845 5845 5844 5844 5843 5842 5842 5841 5840 5840 5839 5839
5894 5893 5893 5892 5892 5891 5890 5890 5888 5887 5887 5886 5885 5885 5883 5882 5880 5878 5877 5876 5875 5874 5874 5873 5873 5873 5872 5871 5869 5868 5867 5867 5866 5865 5864 5863 5862 5861 5860 5859 5859 5858 5858 5857 5856 5856 5855 5855 5854 5854 5854 5853 5853 5853 5852 5852 5851 5851 5851 5850 5850 5850 5849 5849 5849 5848 5848 5848 5847 5847 5847 5846 5846 5845 5844 5844 5843 5842 5842 5841 5840 5840 5839 5839 5838
5894 5893 5893 5892 5892 5891 5890 5889 5888 5887 5886 5886 5885 5884 5883 5882 5880 5878 5877 5876 5875 5874 5874 5873 5873 5872 5872 5871 5870 5868 5867 5867 5866 5865 5864 5864 5863 5862 5861 5860 5859 5858 5858 5857 5856 5856 5855 5855 5854 5854 5854 5853 5853 5853 5852 5852 5852 5851 5851 5850 5850 5850 5849 5849 5849 5848 5848 5848 5847 5847 5846 5846 5845 5844 5844 5843 5842 5842 5841 5840 5840 5839 5838 5838 5837
5893 5893 5892 5892 5891 5890 5890 5889 5888 5887 5886 5885 5884 5884 5883 5882 5880 5878 5877 5876 5875 5874 5874 5873 5872 5872 5871 5871 5870 5868 5867 5867 5866 5865 5864 5864 5863 5862 5861 5860 5859 5858 5858 5857 5857 5856 5855 5855 5854 5854 5854 5853 5853 5853 5853 5852 5852 5851 5851 5850 5850 5850 5849 5849 5848 5848 5847 5847 5847 5846 5846 5846 5845 5844 5843 5843 5842 5841 5840 5840 5839 5838 5837 5837 5836
5893 5892 5892 5891 5891 5890 5889 5888 5887 5886 5885 5885 5884 5883 5883 5882 5880 5878 5877 5876 5875 5874 5874 5873 5872 5871 5871 5871 5870 5868 5867 5866 5866 5865 5864 5864 5863 5862 5861 5860 5860 5859 5858 5857 5857 5856 5856 5855 5854 5854 5854 5854 5853 5853 5853 5852 5852 5851 5851 5850 5850 5849 5849 5848 5848 5848 5847 5847 5846 5846 5845 5845 5844 5843 5843 5842 5841 5840 5840 5839 5838 5838 5837 5836 5836
5893 5892 5891 5891 5890 5890 5889 5888 5887 5886 5885 5884 5883 5882 5882 5881 5880 5878 5877 5875 5874 5874 5873 5872 5872 5871 5871 5870 5870 5868 5867 5866 5866 5865 5865 5864 5863 5862 5862 5861 5860 5859 5858 5858 5857 5856 5856 5855 5855 5854 5854 5854 5853 5853 5853 5852 5852 5851 5851 5850 5849 5849 5849 5848 5848 5847 5847 5847 5846 5846 5845 5844 5844 5843 5842 5841 5840 5840 5839 5838 5838 5837 5836 5836 5835
5893 5892 5891 5891 5890 5889 5888 5887 5886 5885 5884 5883 5882 5882 5881 5880 5879 5878 5876 5875 5874 5873 5873 5872 5871 5871 5870 5870 5869 5868 5867 5866 5865 5865 5864 5864 5863 5862 5862 5861 5860 5860 5859 5858 5857 5856 5856 5856 5855 5855 5854 5854 5853 5853 5853 5852 5852 5851 5851 5850 5850 5849 5849 5848 5848 5848 5847 5847 5846 5846 5845 5844 5843 5842 5841 5841 5840 5839 5839 5838 5837 5837 5836 5835 5834
5892 5892 5891 5890 5889 5888 5887 5886 5885 5884 5883 5883 5881 5881 5880 5879 5878 5877 5876 5874 5873 5873 5872 5872 5871 5870 5870 5869 5869 5868 5867 5866 5865 5865 5864 5864 5863 5862 5862 5862 5861 5860 5859 5858 5857 5857 5856 5856 5855 5855 5854 5854 5853 5853 5852 5852 5852 5852 5851 5850 5850 5850 5849 5849 5849 5848 5847 5847 5846 5846 5845 5844 5843 5843 5842 5841 5840 5839 5839 5838 5837 5836 5835 5834 5832
5892 5891 5890 5890 5889 5888 5887 5886 5884 5884 5883 5882 5880 5879 5879 5878 5877 5876 5875 5874 5873 5872 5872 5871 5870 5870 5869 5869 5868 5868 5867 5866 5865 5864 5864 5863 5863 5862 5862 5862 5861 5861 5860 5859 5858 5857 5856 5856 5855 5855 5855 5854 5854 5853 5853 5853 5852 5852 5852 5851 5851 5851 5850 5850 5849 5849 5848 5847 5847 5846 5845 5844 5843 5843 5842 5841 5840 5840 5839 5838 5837 5835 5834 5833 5831
5891 5891 5890 5889 5888 5887 5886 5885 5884 5883 5882 5881 5879 5878 5877 5876 5876 5875 5874 5873 5872 5872 5871 5871 5870 5869 5869 5868 5867 5867 5866 5865 5865 5864 5863 5863 5862 5862 5861 5861 5861 5860 5860 5860 5859 5858 5857 5856 5856 5855 5855 5855 5854 5854 5853 5853 5853 5853 5853 5852 5852 5851 5851 5851 5850 5849 5849 5848 5847 5846 5845 5844 5843 5842 5841 5841 5840 5839 5839 5838 5836 5835 5833 5832 5831
5891 5890 5889 5889 5887 5887 5885 5884 5884 5883 5881 5880 5878 5877 5876 5875 5875 5873 5873 5872 5871 5871 5870 5870 5869 5868 5868 5867 5867 5866 5866 5865 5864 5864 5863 5862 5862 5861 5861 5860 5860 5860 5860 5859 5859 5858 5857 5857 5856 5855 5855 5855 5855 5854 5854 5854 5854 5853 5853 5853 5853 5852 5852 5851 5850 5850 5849 5848 5847 5846 5845 5844 5843 5842 5841 5841 5840 5839 5838 5837 5836 5835 5834 5832 5831
5889 5889 5888 5888 5886 5886 5884 5884 5883 5882 5880 5879 5877 5876 5875 5874 5873 5873 5872 5872 5871 5870 5869 5869 5868 5868 5867 5867 5866 5866 5865 5864 5864 5863 5862 5862 5861 5861 5860 5860 5859 5859 5859 5858 5858 5858 5857 5857 5856 5856 5855 5855 5855 5854 5854 5854 5854 5854 5853 5853 5853 5853 5852 5851 5850 5850 5849 5848 5847 5846 5845 5844 5842 5842 5841 5841 5840 5839 5838 5837 5836 5835 5834 5832 5831
5888 5888 5887 5887 5885 5885 5884 5883 5882 5880 5879 5878 5877 5875 5874 5873 5873 5872 5871 5871 5870 5869 5869 5868 5868 5867 5867 5866 5865 5865 5864 5864 5863 5863 5862 5861 5861 5860 5859 5859 5859 5858 5858 5857 5857 5857 5857 5857 5856 5856 5855 5855 5855 5854 5854 5854 5854 5854 5853 5853 5853 5853 5852 5852 5851 5850 5849 5848 5847 5846 5844 5843 5842 5842 5842 5841 5840 5839 5838 5837 5836 5835 5834 5832 5831
5886 5886 5886 5885 5884 5883 5883 5882 5881 5879 5879 5878 5876 5875 5874 5873 5872 5871 5871 5870 5870 5869 5868 5868 5867 5866 5866 5865 5865 5865 5864 5863 5863 5862 5862 5861 5860 5859 5859 5858 5858 5858 5857 5856 5856 5856 5856 5856 5855 5856 5855 5855 5855 5854 5854 5854 5853 5853 5853 5853 5853 5853 5852 5852 5851 5850 5849 5848 5847 5845 5844 5844 5843 5842 5841 5841 5839 5838 5837 5836 5835 5834 5833 5832 5830
5884 5884 5884 5884 5883 5882 5882 5881 5880 5879 5878 5877 5876 5875 5873 5873 5872 5871 5870 5870 5869 5868 5868 5867 5866 5866 5865 5865 5864 5864 5863 5863 5862 5862 5861 5860 5860 5859 5858 5858 5857 5857 5856 5856 5855 5855 5855 5854 5854 5854 5855 5855 5854 5854 5854 5853 5853 5853 5852 5852 5853 5852 5852 5851 5850 5850 5849 5848 5846 5844 5844 5844 5842 5842 5841 5840 5838 5838 5836 5835 5834 5833 5832 5831 5830
5883 5883 5883 5882 5882 5881 5881 5880 5879 5878 5877 5876 5875 5874 5873 5872 5871 5870 5870 5869 5868 5868 5867 5866 5866 5865 5864 5864 5864 5863 5863 5862 5862 5861 5861 5860 5859 5858 5858 5857 5857 5856 5856 5855 5855 5854 5854 5854 5853 5853 5853 5854 5854 5853 5853 5853 5852 5852 5852 5852 5852 5852 5851 5850 5850 5849 5848 5847 5845 5844 5844 5843 5842 5841 5840 5839 5838 5837 5835 5834 5833 5832 5831 5830 5828
5881 5881 5881 5881 5881 5880 5879 5879 5878 5877 5876 5875 5874 5874 5873 5872 5871 5870 5869 5868 5868 5867 5866 5865 5865 5864 5863 5863 5863 5863 5862 5862 5861 5860 5860 5859 5859 5858 5857 5856 5856 5856 5855 5855 5854 5854 5853 5853 5853 5852 5852 5852 5852 5852 5852 5852 5852 5852 5851 5851 5851 5851 5850 5850 5849 5848 5847 5846 5844 5844 5844 5843 5842 5841 5840 5838 5837 5836 5834 5833 5832 5831 5829 5828 5827
5880 5880 5880 5880 5879 5878 5878 5877 5877 5876 5875 5874 5873 5873 5872 5871 5870 5869 5868 5867 5867 5866 5865 5865 5864 5863 5862 5862 5862 5862 5861 5861 5860 5860 5859 5859 5858 5857 5857 5856 5855 5855 5855 5854 5853 5853 5853 5853 5852 5852 5852 5851 5851 5851 5851 5851 5851 5851 5851 5851 5850 5850 5849 5849 5848 5847 5845 5844 5843 5843 5843 5842 5841 5840 5839 5837 5836 5835 5833 5832 5831 5829 5828 5827 5825
5878 5878 5879 5878 5877 5876 5876 5876 5875 5875 5874 5873 5872 5872 5871 5870 5870 5869 5868 5867 5866 5865 5864 5864 5863 5862 5862 5861 5861 5861 5860 5860 5859 5858 5858 5858 5857 5857 5856 5855 5855 5854 5854 5854 5853 5853 5852 5852 5851 5851 5851 5851 5850 5850 5850 5850 5850 5850 5850 5850 5849 5849 5848 5848 5847 5845 5844 5843 5842 5842 5841 5841 5840 5839 5838 5836 5835 5834 5832 5831 5829 5828 5827 5825 5824
5877 5877 5877 5876 5876 5875 5875 5874 5874 5873 5872 5872 5871 5871 5870 5870 5869 5868 5867 5866 5865 5864 5864 5863 5862 5862 5861 5861 5860 5860 5859 5858 5858 5857 5857 5857 5857 5856 5855 5854 5854 5853 5853 5853 5853 5852 5852 5851 5851 5850 5850 5850 5850 5850 5849 5849 5849 5849 5849 5849 5848 5848 5847 5846 5845 5843 5843 5842 5841 5841 5840 5839 5838 5837 5836 5835 5833 5832 5831 5829 5828 5827 5825 5824 5822
5875 5875 5875 5875 5874 5874 5873 5873 5872 5872 5871 5870 5870 5869 5869 5868 5868 5867 5866 5865 5864 5863 5863 5862 5862 5861 5861 5860 5859 5859 5858 5857 5856 5856 5856 5856 5856 5856 5855 5854 5853 5853 5852 5852 5852 5851 5851 5851 5850 5850 5850 5849 5849 5849 5849 5849 5849 5849 5849 5848 5848 5847 5846 5845 5842 5841 5841 5840 5840 5839 5838 5838 5837 5836 5835 5833 5832 5831 5829 5828 5827 5825 5824 5822 5821
5874 5874 5874 5873 5873 5872 5872 5871 5871 5870 5869 5869 5868 5868 5867 5867 5866 5866 5865 5864 5863 5863 5862 5862 5861 5861 5860 5859 5858 5857 5857 5856 5855 5855 5855 5855 5855 5855 5854 5853 5852 5852 5851 5851 5850 5850 5850 5850 5849 5849 5849 5849 5848 5848 5848 5848 5848 5848 5848 5847 5847 5846 5845 5844 5841 5839 5840 5839 5838 5838 5837 5836 5835 5834 5833 5832 5831 5829 5828 5826 5825 5824 5822 5821 5819
5871 5872 5872 5872 5872 5871 5871 5870 5869 5869 5868 5867 5866 5866 5866 5866 5865 5865 5864 5863 5863 5862 5862 5861 5860 5860 5859 5858 5857 5856 5856 5855 5854 5854 5854 5854 5854 5853 5852 5852 5851 5851 5850 5849 5849 5849 5848 5848 5848 5848 5848 5848 5848 5847 5847 5846 5846 5846 5846 5846 5846 5845 5844 5844 5840 5838 5839 5837 5837 5837 5835 5835 5834 5833 5832 5831 5830 5828 5826 5825 5824 5822 5820 5819 5817
5869 5871 5871 5871 5870 5869 5869 5868 5868 5867 5866 5866 5865 5865 5865 5864 5864 5863 5863 5862 5862 5861 5860 5860 5859 5859 5858 5857 5856 5856 5855 5854 5853 5853 5853 5852 5851 5850 5850 5849 5850 5850 5849 5848 5847 5847 5847 5846 5846 5847 5847 5847 5847 5846 5846 5845 5845 5845 5845 5844 5844 5844 5843 5842 5839 5837 5838 5837 5836 5835 5834 5833 5832 5831 5830 5829 5828 5826 5825 5823 5822 5820 5818 5817 5815
5867 5868 5869 5869 5868 5868 5867 5867 5866 5865 5865 5864 5864 5864 5863 5863 5862 5862 5862 5861 5861 5860 5859 5858 5858 5857 5856 5856 5855 5855 5854 5853 5852 5852 5852 5852 5850 5849 5848 5848 5849 5848 5848 5848 5846 5846 5846 5845 5845 5845 5845 5845 5845 5845 5845 5844 5844 5844 5844 5843 5842 5842 5841 5841 5839 5837 5836 5836 5835 5834 5833 5832 5831 5830 5829 5828 5826 5825 5823 5822 5820 5818 5817 5815 5813
5865 5866 5868 5867 5866 5866 5866 5865 5864 5864 5863 5863 5862 5862 5862 5861 5861 5861 5861 5860 5859 5859 5858 5857 5857 5856 5855 5855 5854 5854 5853 5853 5852 5852 5851 5851 5851 5850 5849 5848 5848 5847 5847 5847 5846 5845 5845 5844 5844 5844 5844 5844 5844 5844 5844 5844 5843 5843 5842 5842 5841 5840 5840 5839 5838 5837 5835 5835 5834 5833 5832 5831 5830 5828 5827 5826 5824 5823 5821 5820 5818 5816 5815 5813 5811
5863 5864 5865 5865 5865 5864 5864 5863 5862 5862 5862 5861 5861 5860 5860 5860 5860 5859 5859 5859 5858 5858 5857 5856 5855 5855 5854 5853 5853 5853 5852 5851 5851 5851 5850 5850 5849 5848 5847 5847 5846 5845 5844 5845 5845 5844 5843 5843 5843 5843 5843 5843 5843 5843 5843 5842 5842 5842 5841 5840 5839 5839 5838 5837 5837 5836 5835 5833 5832 5831 5830 5829 5828 5827 5825 5824 5822 5821 5819 5818 5816 5814 5812 5811 5809
5861 5862 5863 5863 5863 5862 5862 5861 5860 5860 5860 5859 5859 5858 5858 5858 5858 5858 5858 5857 5856 5856 5855 5854 5854 5853 5852 5852 5852 5851 5850 5849 5849 5849 5848 5848 5848 5846 5846 5845 5844 5843 5842 5842 5843 5843 5842 5842 5842 5841 5842 5842 5842 5842 5841 5841 5841 5840 5840 5839 5838 5838 5837 5836 5835 5835 5834 5833 5831 5829 5829 5827 5826 5825 5823 5822 5820 5819 5817 5815 5813 5812 5810 5808 5807
5858 5860 5861 5861 5860 5860 5859 5858 5858 5858 5858 5857 5857 5856 5856 5856 5856 5856 5856 5855 5854 5854 5853 5853 5852 5851 5851 5850 5850 5850 5849 5847 5847 5848 5847 5845 5845 5844 5844 5842 5841 5841 5840 5840 5841 5841 5841 5841 5841 5840 5840 5840 5840 5840 5840 5839 5839 5839 5838 5838 5837 5836 5836 5835 5834 5833 5832 5832 5831 5828 5826 5825 5824 5823 5822 5820 5818 5817 5815 5813 5811 5809 5807 5806 5804
5856 5858 5859 5859 5858 5857 5857 5856 5856 5856 5856 5855 5855 5854 5854 5854 5855 5854 5854 5853 5853 5852 5851 5851 5850 5850 5849 5849 5849 5848 5847 5846 5846 5847 5845 5843 5842 5842 5841 5840 5839 5838 5838 5838 5838 5839 5839 5839 5839 5839 5839 5839 5839 5838 5838 5838 5837 5837 5837 5836 5836 5835 5835 5834 5833 5831 5830 5830 5829 5828 5826 5824 5822 5821 5820 5818 5816 5814 5812 5810 5808 5806 5804 5803 5801
5854 5856 5856 5856 5856 5855 5855 5855 5855 5854 5854 5853 5853 5852 5852 5852 5852 5852 5852 5851 5850 5850 5849 5849 5848 5848 5848 5848 5848 5847 5846 5845 5844 5844 5843 5842 5841 5840 5838 5837 5837 5836 5836 5836 5836 5837 5837 5837 5837 5837 5837 5837 5837 5837 5837 5836 5836 5836 5835 5835 5835 5834 5833 5832 5831 5830 5829 5827 5826 5826 5825 5824 5822 5820 5818 5816 5814 5812 5810 5808 5806 5803 5801 5799 5798
5852 5854 5854 5854 5853 5853 5853 5853 5853 5852 5852 5851 5851 5851 5850 5850 5850 5850 5850 5849 5848 5848 5847 5847 5847 5847 5847 5847 5846 5846 5845 5844 5843 5842 5842 5841 5840 5840 5837 5835 5835 5835 5834 5834 5834 5835 5835 5835 5835 5835 5836 5836 5836 5835 5835 5835 5835 5835 5834 5834 5833 5833 5832 5831 5830 5829 5827 5826 5824 5823 5822 5821 5820 5818 5816 5814 5811 5809 5807 5805 5803 5800 5798 5796 5794
5850 5851 5851 5851 5851 5851 5850 5850 5850 5850 5850 5849 5849 5849 5848 5848 5848 5848 5847 5847 5846 5845 5845 5845 5845 5845 5845 5845 5845 5844 5843 5842 5842 5840 5840 5840 5839 5839 5837 5834 5834 5833 5833 5833 5833 5833 5833 5833 5833 5833 5834 5834 5834 5834 5834 5834 5834 5833 5833 5832 5832 5831 5830 5829 5828 5827 5826 5824 5823 5821 5819 5818 5816 5814 5813 5811 5809 5806 5804 5802 5800 5797 5795 5793 5791
5848 5849 5848 5848 5848 5849 5848 5848 5848 5848 5848 5847 5847 5846 5846 5846 5846 5845 5845 5845 5844 5844 5844 5844 5844 5843 5843 5843 5843 5843 5842 5841 5841 5839 5837 5837 5837 5837 5834 5832 5832 5832 5832 5832 5832 5831 5831 5831 5831 5831 5832 5832 5833 5833 5833 5832 5832 5832 5832 5831 5830 5829 5828 5827 5826 5825 5824 5823 5821 5819 5817 5815 5813 5811 5809 5808 5806 5803 5801 5799 5797 5795 5792 5790 5788
5846 5846 5845 5846 5846 5846 5846 5845 5845 5845 5845 5845 5845 5845 5845 5844 5843 5843 5843 5843 5842 5842 5842 5842 5842 5842 5842 5841 5841 5841 5841 5840 5841 5840 5837 5835 5835 5834 5831 5830 5831 5831 5831 5831 5831 5830 5830 5829 5829 5830 5830 5831 5831 5832 5831 5831 5831 5831 5830 5829 5829 5828 5827 5826 5825 5823 5822 5821 5819 5817 5815 5813 5811 5809 5807 5804 5803 5801 5798 5796 5794 5791 5789 5787 5785
5844 5843 5843 5843 5843 5843 5843 5842 5842 5843 5843 5843 5843 5843 5843 5842 5841 5841 5841 5840 5840 5840 5840 5840 5840 5840 5839 5839 5839 5838 5838 5839 5838 5838 5837 5834 5833 5832 5830 5830 5830 5830 5830 5830 5829 5829 5829 5828 5828 5828 5829 5829 5830 5830 5830 5830 5830 5829 5829 5828 5827 5826 5825 5824 5823 5822 5820 5819 5817 5815 5813 5811 5809 5806 5804 5802 5800 5798 5795 5793 5791 5788 5786 5784 5782
5841 5840 5839 5840 5840 5840 5840 5839 5840 5840 5840 5840 5840 5841 5840 5840 5839 5839 5839 5838 5837 5838 5838 5838 5838 5838 5837 5837 5837 5836 5835 5836 5836 5835 5834 5833 5832 5831 5830 5829 5829 5829 5829 5828 5828 5828 5827 5827 5827 5827 5828 5828 5829 5829 5829 5829 5828 5828 5827 5827 5826 5825 5824 5823 5821 5820 5818 5817 5815 5813 5811 5809 5806 5804 5802 5799 5797 5794 5792 5790 5787 5785 5783 5781 5779
5838 5837 5836 5837 5837 5838 5838 5837 5837 5838 5838 5838 5838 5838 5838 5837 5837 5836 5836 5836 5835 5835 5835 5836 5836 5835 5835 5835 5835 5835 5833 5832 5832 5832 5831 5831 5830 5829 5829 5828 5828 5828 5827 5827 5826 5826 5826 5825 5826 5826 5827 5827 5827 5827 5827 5827 5827 5827 5826 5825 5824 5823 5822 5820 5819 5818 5816 5814 5813 5811 5808 5806 5804 5801 5799 5796 5793 5791 5788 5786 5783 5781 5779 5777 5776
5834 5833 5833 5833 5834 5835 5835 5835 5835 5835 5836 5837 5837 5836 5835 5835 5835 5834 5833 5833 5833 5833 5833 5833 5833 5833 5833 5833 5833 5833 5832 5830 5830 5829 5829 5828 5828 5828 5827 5827 5826 5826 5826 5825 5824 5824 5824 5825 5825 5825 5826 5826 5826 5826 5826 5826 5825 5825 5824 5823 5822 5821 5820 5818 5817 5816 5814 5812 5810 5808 5806 5804 5801 5798 5796 5793 5790 5787 5784 5782 5780 5777 5775 5774 5772
5830 5829 5829 5829 5831 5833 5833 5833 5833 5834 5834 5834 5834 5833 5833 5833 5833 5832 5832 5832 5831 5831 5831 5831 5831 5831 5831 5830 5830 5830 5829 5828 5828 5827 5827 5826 5826 5826 5825 5825 5825 5824 5824 5823 5823 5824 5824 5824 5824 5824 5824 5824 5824 5824 5824 5824 5823 5823 5821 5820 5819 5818 5817 5816 5815 5813 5811 5809 5807 5805 5803 5800 5797 5795 5792 5789 5786 5784 5781 5778 5776 5774 5772 5770 5768
5826 5825 5826 5827 5830 5832 5832 5831 5831 5832 5832 5832 5831 5830 5830 5830 5830 5830 5830 5830 5830 5829 5829 5829 5829 5829 5828 5828 5828 5827 5826 5826 5826 5825 5825 5824 5824 5824 5823 5823 5823 5823 5822 5822 5822 5823 5823 5823 5823 5823 5823 5823 5822 5822 5822 5821 5821 5820 5819 5818 5817 5816 5815 5813 5812 5810 5808 5806 5804 5802 5799 5796 5794 5791 5788 5786 5783 5780 5777 5775 5772 5770 5768 5766 5764
5822 5823 5823 5825 5828 5829 5828 5828 5828 5829 5829 5829 5828 5828 5828 5828 5828 5828 5828 5828 5828 5828 5827 5827 5827 5827 5827 5826 5826 5825 5824 5824 5823 5823 5823 5822 5822 5822 5822 5822 5822 5821 5821 5821 5821 5821 5822 5822 5822 5822 5822 5821 5821 5820 5820 5819 5818 5817 5816 5816 5815 5814 5813 5812 5810 5808 5805 5803 5801 5798 5796 5793 5790 5787 5784 5782 5779 5776 5773 5771 5769 5766 5764 5762 5760
5820 5821 5821 5821 5825 5827 5825 5825 5825 5826 5827 5826 5826 5826 5826 5826 5826 5826 5826 5826 5826 5826 5826 5826 5825 5825 5825 5824 5824 5823 5822 5822 5821 5821 5821 5820 5820 5821 5821 5820 5820 5820 5820 5820 5820 5820 5821 5821 5821 5821 5820 5820 5819 5819 5818 5817 5816 5815 5814 5813 5811 5811 5810 5808 5807 5805 5802 5800 5798 5795 5792 5790 5787 5783 5780 5777 5774 5772 5770 5767 5765 5763 5761 5758 5756
5816 5818 5818 5818 5823 5824 5822 5822 5822 5823 5824 5823 5824 5824 5823 5824 5824 5824 5824 5824 5824 5824 5824 5824 5823 5823 5823 5822 5821 5821 5820 5820 5819 5819 5819 5819 5819 5819 5819 5819 5819 5819 5820 5820 5819 5819 5819 5819 5819 5819 5819 5818 5818 5817 5816 5815 5814 5813 5812 5810 5808 5807 5806 5804 5803 5801 5799 5797 5794 5792 5789 5786 5783 5779 5776 5773 5770 5768 5765 5763 5761 5759 5757 5755 5753
5813 5815 5816 5816 5818 5819 5818 5818 5819 5820 5821 5821 5821 5821 5821 5821 5822 5822 5822 5822 5822 5822 5821 5821 5821 5821 5820 5820 5819 5818 5818 5818 5817 5817 5817 5818 5818 5818 5818 5818 5818 5818 5819 5819 5818 5818 5818 5818 5818 5817 5817 5817 5816 5815 5814 5813 5812 5811 5810 5808 5806 5804 5803 5801 5799 5798 5796 5794 5791 5788 5785 5782 5779 5775 5772 5770 5767 5764 5762 5759 5757 5755 5753 5751 5749
5809 5812 5813 5813 5814 5815 5815 5816 5817 5818 5819 5819 5819 5819 5818 5819 5819 5819 5819 5819 5820 5819 5819 5819 5818 5818 5818 5817 5817 5816 5816 5816 5816 5816 5816 5817 5817 5817 5817 5817 5817 5818 5818 5817 5817 5817 5817 5816 5816 5816 5815 5815 5814 5813 5812 5811 5810 5809 5808 5806 5804 5802 5800 5798 5796 5794 5792 5790 5787 5784 5781 5778 5775 5772 5769 5766 5764 5761 5758 5756 5753 5751 5749 5747 5745
5807 5810 5810 5809 5811 5813 5812 5813 5814 5815 5816 5817 5817 5816 5816 5816 5816 5817 5817 5817 5817 5817 5816 5816 5816 5816 5815 5815 5814 5815 5815 5815 5815 5815 5815 5815 5815 5815 5816 5816 5816 5816 5816 5816 5816 5815 5815 5815 5814 5814 5814 5813 5812 5811 5810 5809 5808 5807 5805 5804 5802 5800 5797 5795 5793 5790 5788 5785 5783 5781 5778 5775 5772 5769 5766 5763 5761 5758 5756 5753 5750 5747 5745 5743 5740
5805 5806 5806 5807 5809 5810 5810 5811 5812 5813 5813 5814 5814 5814 5814 5814 5814 5815 5815 5815 5815 5814 5814 5814 5814 5814 5813 5813 5813 5813 5813 5813 5813 5814 5814 5814 5814 5814 5814 5815 5815 5815 5815 5814 5814 5814 5814 5813 5813 5812 5812 5811 5810 5809 5808 5807 5806 5804 5803 5801 5799 5797 5795 5792 5790 5787 5784 5781 5779 5776 5774 5772 5770 5767 5764 5760 5757 5755 5752 5750 5747 5744 5741 5739 5736
5802 5803 5804 5805 5806 5807 5808 5809 5810 5810 5811 5811 5811 5811 5812 5812 5812 5813 5813 5813 5812 5812 5812 5812 5812 5812 5811 5811 5811 5812 5812 5812 5812 5812 5812 5812 5813 5813 5813 5813 5813 5813 5813 5813 5812 5812 5812 5811 5811 5810 5810 5809 5808 5807 5806 5805 5803 5802 5800 5798 5796 5794 5792 5789 5787 5784 5781 5778 5775 5773 5770 5768 5765 5764 5761 5758 5754 5751 5748 5746 5744 5740 5737 5735 5732